• In Hungary
  • List of Countries
  • For 7 days
  • Water Temperature
  • Satellite Maps
  • Weather Map
  • News
  • Weather Widgets
  • user-avatar
    Login

    Hourly Weather Libidza

    Today, 26 September, Wednesday

    Time Temperature Precipitation Wind Pressure Humidity
    00:00 +5°C° 0 mm 2 mps 756 mmHg 77%
    01:00 +5°C° 0 mm 2 mps 756 mmHg 78%
    02:00 +5°C° 0 mm 2 mps 756 mmHg 78%
    03:00 +4°C° 0 mm 2 mps 756 mmHg 79%
    04:00 +4°C° 0 mm 2 mps 756 mmHg 79%
    05:00 +5°C° 0 mm 2 mps 756 mmHg 77%
    06:00 +4°C° 0 mm 3 mps 756 mmHg 74%
    07:00 +5°C° 0 mm 3 mps 756 mmHg 72%
    08:00 +7°C° 0 mm 3 mps 755 mmHg 64%
    09:00 +8°C° 0 mm 4 mps 755 mmHg 57%
    10:00 +11°C° 0 mm 4 mps 755 mmHg 49%
    11:00 +12°C° 0 mm 4 mps 754 mmHg 47%
    12:00 +12°C° 0 mm 5 mps 754 mmHg 45%
    13:00 +13°C° 0 mm 5 mps 753 mmHg 43%
    14:00 +13°C° 0 mm 4 mps 753 mmHg 45%
    15:00 +13°C° 0 mm 4 mps 752 mmHg 48%
    16:00 +12°C° 0 mm 3 mps 751 mmHg 50%
    17:00 +12°C° 0 mm 4 mps 751 mmHg 51%
    18:00 +12°C° 0 mm 4 mps 751 mmHg 51%
    19:00 +12°C° 0 mm 4 mps 751 mmHg 52%
    20:00 +10°C° 0 mm 5 mps 751 mmHg 50%
    21:00 +10°C° 0 mm 5 mps 750 mmHg 49%
    22:00 +10°C° 0 mm 6 mps 750 mmHg 48%
    23:00 +10°C° 0 mm 6 mps 750 mmHg 48%

    Tomorrow, 27 September, Thursday

    Time Temperature Precipitation Wind Pressure Humidity
    00:00 +10°C° 0 mm 6 mps 750 mmHg 48%
    01:00 +10°C° 0 mm 5 mps 749 mmHg 48%
    02:00 +10°C° 0 mm 5 mps 749 mmHg 51%
    03:00 +10°C° 0 mm 5 mps 749 mmHg 54%
    04:00 +10°C° 0 mm 5 mps 749 mmHg 57%
    05:00 +10°C° 0 mm 5 mps 749 mmHg 57%
    06:00 +10°C° 0 mm 5 mps 749 mmHg 57%
    07:00 +12°C° 0 mm 5 mps 749 mmHg 57%
    08:00 +13°C° 0 mm 5 mps 749 mmHg 57%
    09:00 +14°C° 0 mm 5 mps 749 mmHg 58%
    10:00 +15°C° 0 mm 5 mps 749 mmHg 59%
    11:00 +16°C° 0 mm 5 mps 749 mmHg 59%
    12:00 +19°C° 0 mm 5 mps 749 mmHg 59%
    13:00 +20°C° 0 mm 5 mps 748 mmHg 59%
    14:00 +20°C° 0 mm 5 mps 748 mmHg 60%
    15:00 +20°C° 0 mm 4 mps 748 mmHg 62%
    16:00 +20°C° 0 mm 4 mps 747 mmHg 63%
    17:00 +19°C° 0 mm 3 mps 747 mmHg 69%
    18:00 +17°C° 0 mm 3 mps 747 mmHg 74%
    19:00 +16°C° 0 mm 2 mps 746 mmHg 80%
    20:00 +16°C° 0 mm 3 mps 746 mmHg 79%
    21:00 +16°C° 0 mm 3 mps 746 mmHg 79%
    22:00 +14°C° 0 mm 3 mps 746 mmHg 79%
    23:00 +14°C° 0 mm 4 mps 745 mmHg 78%

    Day after tomorrow, 28 September, Friday

    Time Temperature Precipitation Wind Pressure Humidity
    00:00 +14°C° 0 mm 4 mps 744 mmHg 77%
    01:00 +14°C° 0 mm 4 mps 744 mmHg 76%
    02:00 +14°C° 0 mm 4 mps 743 mmHg 75%
    03:00 +13°C° 0 mm 4 mps 743 mmHg 74%
    04:00 +13°C° 0 mm 4 mps 742 mmHg 73%
    05:00 +13°C° 0 mm 4 mps 742 mmHg 71%
    06:00 +13°C° 0 mm 4 mps 742 mmHg 70%
    07:00 +13°C° 0 mm 4 mps 742 mmHg 68%
    08:00 +15°C° 0 mm 4 mps 742 mmHg 63%
    09:00 +16°C° 0 mm 5 mps 742 mmHg 58%
    10:00 +17°C° 0 mm 5 mps 742 mmHg 53%
    11:00 +17°C° 0 mm 5 mps 742 mmHg 54%
    12:00 +17°C° 0 mm 5 mps 742 mmHg 55%
    13:00 +17°C° 0 mm 5 mps 742 mmHg 56%
    14:00 +16°C° 0 mm 5 mps 742 mmHg 61%
    15:00 +16°C° 0 mm 5 mps 742 mmHg 65%
    16:00 +15°C° 0 mm 4 mps 742 mmHg 70%
    17:00 +14°C° 0 mm 4 mps 742 mmHg 71%
    18:00 +13°C° 0 mm 3 mps 743 mmHg 73%
    19:00 +12°C° 0 mm 3 mps 743 mmHg 74%
    20:00 +11°C° 0 mm 3 mps 743 mmHg 73%
    21:00 +11°C° 0 mm 3 mps 744 mmHg 71%
    22:00 +10°C° 0 mm 2 mps 744 mmHg 69%
    23:00 +10°C° 0 mm 2 mps 744 mmHg 69%

    29 September, Saturday

    Time Temperature Precipitation Wind Pressure Humidity
    00:00 +10°C° 0 mm 2 mps 744 mmHg 69%
    01:00 +10°C° 0 mm 2 mps 745 mmHg 69%
    02:00 +9°C° 0 mm 2 mps 745 mmHg 72%
    03:00 +9°C° 0 mm 3 mps 745 mmHg 75%
    04:00 +8°C° 0 mm 3 mps 745 mmHg 78%
    05:00 +8°C° 0 mm 3 mps 745 mmHg 80%
    06:00 +8°C° 0 mm 3 mps 746 mmHg 81%
    07:00 +7°C° 0 mm 4 mps 746 mmHg 82%
    08:00 +8°C° 0 mm 4 mps 747 mmHg 72%
    09:00 +10°C° 0 mm 4 mps 747 mmHg 62%
    10:00 +12°C° 0 mm 4 mps 748 mmHg 52%
    11:00 +12°C° 0 mm 4 mps 748 mmHg 48%
    12:00 +13°C° 0 mm 4 mps 748 mmHg 44%
    13:00 +13°C° 0 mm 4 mps 748 mmHg 40%
    14:00 +13°C° 0 mm 4 mps 748 mmHg 41%
    15:00 +13°C° 0 mm 4 mps 748 mmHg 42%
    16:00 +13°C° 0 mm 4 mps 748 mmHg 43%
    17:00 +11°C° 0 mm 3 mps 748 mmHg 47%
    18:00 +10°C° 0 mm 3 mps 749 mmHg 51%
    19:00 +9°C° 0 mm 2 mps 749 mmHg 55%
    20:00 +8°C° 0 mm 2 mps 749 mmHg 56%
    21:00 +8°C° 0 mm 2 mps 750 mmHg 57%
    22:00 +8°C° 0 mm 1 mps 750 mmHg 58%
    23:00 +8°C° 0 mm 1 mps 750 mmHg 59%

    30 September, Sunday

    Time Temperature Precipitation Wind Pressure Humidity
    00:00 +8°C° 0 mm 1 mps 750 mmHg 60%
    01:00 +7°C° 0 mm 1 mps 750 mmHg 60%
    02:00 +7°C° 0 mm 1 mps 750 mmHg 61%
    03:00 +7°C° 0 mm 1 mps 749 mmHg 62%
    04:00 +5°C° 0 mm 2 mps 749 mmHg 63%
    05:00 +6°C° 0 mm 2 mps 749 mmHg 63%
    06:00 +6°C° 0 mm 2 mps 749 mmHg 63%
    07:00 +6°C° 0 mm 2 mps 749 mmHg 62%
    08:00 +8°C° 0 mm 2 mps 749 mmHg 56%
    09:00 +10°C° 0 mm 3 mps 749 mmHg 49%
    10:00 +12°C° 0 mm 3 mps 749 mmHg 42%
    11:00 +12°C° 0 mm 3 mps 748 mmHg 39%
    12:00 +13°C° 0 mm 3 mps 747 mmHg 36%
    13:00 +14°C° 0 mm 3 mps 747 mmHg 33%
    14:00 +14°C° 0 mm 3 mps 746 mmHg 35%
    15:00 +14°C° 0 mm 3 mps 746 mmHg 36%
    16:00 +14°C° 0 mm 3 mps 745 mmHg 38%
    17:00 +12°C° 0 mm 3 mps 745 mmHg 42%
    18:00 +11°C° 0 mm 3 mps 745 mmHg 47%
    19:00 +9°C° 0 mm 3 mps 744 mmHg 51%
    20:00 +9°C° 0 mm 3 mps 744 mmHg 55%
    21:00 +8°C° 0 mm 3 mps 744 mmHg 59%
    22:00 +7°C° 0 mm 3 mps 743 mmHg 63%
    23:00 +7°C° 0 mm 3 mps 743 mmHg 66%

    1 October, Monday

    Time Temperature Precipitation Wind Pressure Humidity
    00:00 +7°C° 0 mm 3 mps 742 mmHg 68%
    01:00 +6°C° 0 mm 2 mps 742 mmHg 70%
    02:00 +6°C° 0 mm 2 mps 741 mmHg 69%
    03:00 +7°C° 0 mm 2 mps 740 mmHg 67%
    04:00 +7°C° 0 mm 2 mps 740 mmHg 65%
    05:00 +7°C° 0 mm 3 mps 740 mmHg 63%
    06:00 +8°C° 0 mm 3 mps 739 mmHg 62%
    07:00 +9°C° 0 mm 3 mps 739 mmHg 60%
    08:00 +11°C° 0 mm 4 mps 738 mmHg 57%
    09:00 +13°C° 0 mm 5 mps 738 mmHg 53%
    10:00 +16°C° 0 mm 5 mps 738 mmHg 50%
    11:00 +16°C° 0 mm 5 mps 737 mmHg 50%
    12:00 +17°C° 0 mm 6 mps 737 mmHg 49%
    13:00 +19°C° 0 mm 6 mps 737 mmHg 48%
    14:00 +19°C° 0 mm 5 mps 736 mmHg 50%
    15:00 +18°C° 0 mm 4 mps 736 mmHg 52%
    16:00 +18°C° 0 mm 3 mps 736 mmHg 54%
    17:00 +17°C° 0 mm 3 mps 736 mmHg 58%
    18:00 +16°C° 0 mm 3 mps 736 mmHg 61%
    19:00 +15°C° 0 mm 2 mps 736 mmHg 64%
    20:00 +15°C° 0 mm 2 mps 736 mmHg 65%
    21:00 +14°C° 0 mm 2 mps 737 mmHg 67%
    22:00 +14°C° 0 mm 2 mps 737 mmHg 68%
    23:00 +13°C° 0 mm 2 mps 737 mmHg 68%
    Show more